FW3090 Weather Reports


Display with metric or nautical units.
time (UTC)temp
F
wind
direction
speed
MPH
gust
MPH
rain 1hr
in
rain 24hr
in
rain mn
in
humidity
%
barometer
mb
20260831172513 87 229 1.0 4.0 0.00 0.00 0.00 73 1011.0
20260831172006 85 248 2.0 6.0 0.00 0.00 0.00 74 1010.9
20260831171500 86 217 3.0 7.0 0.00 0.00 0.00 69 1010.9
20260831170955 88 202 3.0 7.0 0.00 0.00 0.00 67 1010.8
20260831170710 87 251 1.0 7.0 0.00 0.00 0.00 71 1010.7
20260831165942 86 230 0.0 0.0 0.00 0.00 0.00 71 1010.8
20260831165703 86 209 1.0 3.0 0.00 0.00 0.00 74 1010.8
20260831164936 85 202 2.0 5.0 0.00 0.00 0.00 72 1010.8
20260831164436 85 202 2.0 5.0 0.00 0.00 0.00 74 1010.7
20260831163936 85 224 2.0 5.0 0.00 0.00 0.00 73 1010.7
20260831163437 84 222 1.0 5.0 0.00 0.00 0.00 74 1010.7
20260831162936 83 231 0.0 1.0 0.00 0.00 0.00 76 1010.7
20260831162435 82 231 0.0 1.0 0.00 0.00 0.00 78 1010.7
20260831161935 81 231 0.0 3.0 0.00 0.00 0.00 77 1010.6
20260831161435 81 231 0.0 3.0 0.00 0.00 0.00 78 1010.7
20260831160934 81 278 0.0 2.0 0.00 0.00 0.00 78 1010.6
20260831160653 81 278 1.0 3.0 0.00 0.00 0.00 78 1010.6
20260831155932 81 275 1.0 3.0 0.00 0.00 0.00 78 1010.5
20260831155433 81 223 1.0 2.0 0.00 0.00 0.00 78 1010.6
20260831154933 80 223 1.0 3.0 0.00 0.00 0.00 78 1010.5
20260831154433 80 223 1.0 3.0 0.00 0.00 0.00 79 1010.5
20260831154410 80 215 1.0 4.0 0.00 0.00 0.00 79 1010.4
20260831153429 80 177 1.0 4.0 0.00 0.00 0.00 79 1010.3
20260831152929 80 170 1.0 4.0 0.00 0.00 0.00 79 1010.4
20260831152648 79 228 1.0 3.0 0.00 0.00 0.00 80 1010.4
20260831151929 79 229 2.0 4.0 0.00 0.00 0.00 80 1010.5
20260831151428 79 229 2.0 4.0 0.00 0.00 0.00 80 1010.3
20260831150929 79 248 1.0 3.0 0.00 0.00 0.00 80 1010.3
20260831150429 78 222 2.0 3.0 0.00 0.00 0.00 81 1010.1
20260831145929 78 224 1.0 3.0 0.00 0.00 0.00 81 1010.1
20260831145429 78 309 1.0 3.0 0.00 0.00 0.00 82 1010.1
20260831144928 78 309 1.0 3.0 0.00 0.00 0.00 82 1010.1
20260831144428 78 247 1.0 3.0 0.00 0.00 0.00 82 1010.4
20260831144156 77 242 0.0 0.0 0.00 0.00 0.00 82 1010.0
20260831143646 77 188 0.0 1.0 0.00 0.00 0.00 83 1009.8
20260831142928 77 188 0.0 2.0 0.00 0.00 0.00 83 1009.8
20260831142428 77 186 1.0 2.0 0.00 0.00 0.00 83 1009.7
20260831141929 76 186 1.0 3.0 0.00 0.00 0.00 83 1009.7
20260831141426 76 186 2.0 4.0 0.00 0.00 0.00 83 1009.6
20260831140919 76 185 2.0 4.0 0.00 0.00 0.00 84 1009.5
20260831140413 76 191 2.0 5.0 0.00 0.00 0.00 85 1009.5
20260831135907 75 228 2.0 5.0 0.00 0.00 0.00 85 1009.6
20260831135401 75 173 2.0 5.0 0.00 0.00 0.00 85 1009.6
20260831134856 75 175 3.0 9.0 0.00 0.00 0.00 86 1009.5
20260831134350 75 171 2.0 9.0 0.00 0.00 0.00 87 1009.4
20260831133843 74 91 2.0 3.0 0.00 0.00 0.00 87 1009.4
20260831133559 74 103 2.0 4.0 0.00 0.00 0.00 87 1009.3
20260831133057 74 104 2.0 4.0 0.00 0.00 0.00 88 1009.3
20260831132326 73 104 1.0 3.0 0.00 0.00 0.00 88 1009.2
20260831131819 73 105 1.0 3.0 0.00 0.00 0.00 88 1009.3
20260831131531 73 104 1.0 4.0 0.00 0.00 0.00 89 1009.2
20260831130808 72 125 2.0 4.0 0.00 0.00 0.00 89 1009.2
20260831130301 72 91 2.0 3.0 0.00 0.00 0.00 89 1009.1
20260831125756 71 91 1.0 3.0 0.00 0.00 0.00 90 1009.2
20260831125249 71 91 1.0 3.0 0.00 0.00 0.00 90 1009.2
20260831124744 71 91 1.0 3.0 0.00 0.00 0.00 89 1009.3
20260831124238 71 91 2.0 3.0 0.00 0.00 0.00 89 1009.3
20260831123732 71 91 2.0 3.0 0.00 0.00 0.00 89 1009.2
20260831123226 71 91 2.0 4.0 0.00 0.00 0.00 89 1009.2
20260831122720 71 91 1.0 4.0 0.00 0.00 0.00 89 1009.1
20260831122213 70 91 0.0 0.0 0.00 0.00 0.00 89 1009.1
20260831121708 70 91 0.0 0.0 0.00 0.00 0.00 89 1009.0
20260831121201 70 91 0.0 0.0 0.00 0.00 0.00 88 1008.9
20260831120656 70 91 0.0 0.0 0.00 0.00 0.00 88 1009.2
20260831120150 70 91 0.0 0.0 0.00 0.00 0.00 88 1009.0
20260831115644 70 91 0.0 0.0 0.00 0.00 0.00 88 1008.9
20260831115138 70 91 1.0 3.0 0.00 0.00 0.00 88 1008.9
20260831114631 70 91 2.0 4.0 0.00 0.00 0.00 88 1008.8
20260831114126 70 91 2.0 4.0 0.00 0.00 0.00 88 1008.8
20260831113619 70 91 1.0 4.0 0.00 0.00 0.00 87 1008.8
20260831113114 70 91 1.0 3.0 0.00 0.00 0.00 87 1008.9
20260831112829 70 91 0.0 3.0 0.00 0.00 0.00 87 1008.9
20260831112101 70 91 0.0 0.0 0.00 0.00 0.00 87 1009.0
20260831111819 71 91 0.0 0.0 0.00 0.00 0.00 87 1009.0
20260831111306 71 91 0.0 0.0 0.00 0.00 0.00 87 1008.9
20260831110804 71 91 0.0 0.0 0.00 0.00 0.00 87 1008.8
20260831110038 71 91 0.0 0.0 0.00 0.00 0.00 86 1009.1
20260831105531 71 91 0.0 1.0 0.00 0.00 0.00 86 1008.9
20260831105500 71 91 0.0 3.0 0.00 0.00 0.00 86 1008.9
20260831104737 71 91 0.0 3.0 0.00 0.00 0.00 86 1008.8
20260831104014 71 91 0.0 2.0 0.00 0.00 0.00 86 1008.7
20260831103507 71 91 1.0 3.0 0.00 0.00 0.00 86 1008.8
20260831103002 71 91 1.0 3.0 0.00 0.00 0.00 86 1008.8
20260831102455 71 91 1.0 3.0 0.00 0.00 0.00 86 1008.7
20260831101950 71 91 0.0 2.0 0.00 0.00 0.00 86 1008.8
20260831101443 72 91 1.0 4.0 0.00 0.00 0.00 86 1008.9
20260831100938 72 91 2.0 6.0 0.00 0.00 0.00 86 1008.8
20260831100431 72 91 1.0 6.0 0.00 0.00 0.00 86 1008.9
20260831095925 72 65 1.0 2.0 0.00 0.00 0.00 85 1009.0
20260831095419 72 65 1.0 4.0 0.00 0.00 0.00 85 1008.9
20260831094913 72 65 1.0 4.0 0.00 0.00 0.00 85 1009.0
20260831094408 72 116 0.0 0.0 0.00 0.00 0.00 85 1008.9
20260831093901 73 116 0.0 0.0 0.00 0.00 0.00 85 1008.8
20260831093356 73 116 0.0 0.0 0.00 0.00 0.00 85 1009.0
20260831092849 73 118 0.0 0.0 0.00 0.00 0.00 85 1009.0
20260831092343 73 118 0.0 0.0 0.00 0.00 0.00 85 1008.9
20260831091838 73 118 0.0 0.0 0.00 0.00 0.00 85 1008.9
20260831091332 73 118 1.0 9.0 0.00 0.00 0.00 85 1008.9
20260831090826 73 119 2.0 9.0 0.00 0.00 0.00 85 1008.9
20260831090320 73 92 1.0 3.0 0.00 0.00 0.00 85 1008.9
20260831085813 73 92 2.0 5.0 0.00 0.00 0.00 85 1009.0
20260831085308 73 93 3.0 6.0 0.00 0.00 0.00 85 1009.0
20260831084803 73 81 3.0 6.0 0.00 0.00 0.00 85 1008.9
20260831084256 73 79 3.0 6.0 0.00 0.00 0.00 85 1008.9
20260831083749 73 84 3.0 6.0 0.00 0.00 0.00 85 1008.9
20260831083243 73 80 3.0 7.0 0.00 0.00 0.00 85 1009.0
20260831082737 73 84 3.0 7.0 0.00 0.00 0.00 85 1009.0
20260831082720 73 91 4.0 7.0 0.00 0.00 0.00 84 1009.0
20260831081725 73 88 3.0 7.0 0.00 0.00 0.00 84 1009.0
20260831081225 73 88 3.0 7.0 0.00 0.00 0.00 84 1009.0
20260831081207 73 94 4.0 8.0 0.00 0.00 0.00 84 1009.0
20260831080226 73 90 4.0 8.0 0.00 0.00 0.00 84 1009.0
20260831075725 73 87 3.0 8.0 0.00 0.00 0.00 84 1009.5
20260831075226 73 103 3.0 8.0 0.00 0.00 0.00 84 1009.1
20260831074947 73 100 3.0 8.0 0.00 0.00 0.00 84 1009.1
20260831074448 73 98 3.0 7.0 0.00 0.00 0.00 84 1009.2
20260831073724 73 92 3.0 7.0 0.00 0.00 0.00 83 1009.2
20260831073221 73 81 2.0 6.0 0.00 0.00 0.00 83 1009.2
20260831072940 74 91 2.0 4.0 0.00 0.00 0.00 83 1009.2
20260831072221 74 92 1.0 5.0 0.00 0.00 0.00 83 1009.2
20260831071723 74 146 1.0 5.0 0.00 0.00 0.00 82 1009.2
20260831071221 74 96 1.0 3.0 0.00 0.00 0.00 82 1009.3
20260831070947 74 168 2.0 4.0 0.00 0.00 0.00 82 1009.3
20260831070217 74 175 2.0 4.0 0.00 0.00 0.00 82 1009.5
20260831065718 74 167 1.0 6.0 0.00 0.00 0.00 82 1009.4
20260831065448 74 168 1.0 6.0 0.00 0.00 0.00 82 1009.5
20260831064717 74 112 2.0 4.0 0.00 0.00 0.00 82 1009.5
20260831064217 74 159 2.0 4.0 0.00 0.00 0.00 82 1009.6
20260831063717 74 83 1.0 3.0 0.00 0.00 0.00 82 1009.5
20260831063435 74 79 1.0 3.0 0.00 0.00 0.00 82 1009.6
20260831062717 74 79 1.0 4.0 0.00 0.00 0.00 82 1009.6
20260831062218 74 79 2.0 6.0 0.00 0.00 0.00 81 1009.7
20260831061714 74 79 3.0 6.0 0.00 0.00 0.00 81 1009.6
20260831061214 74 96 3.0 6.0 0.00 0.00 0.00 81 1009.7
20260831060716 74 88 3.0 6.0 0.00 0.00 0.00 81 1009.7
20260831060215 75 88 3.0 6.0 0.00 0.00 0.00 81 1009.8
20260831055713 74 90 2.0 4.0 0.00 0.00 0.00 81 1009.9
20260831055213 75 89 2.0 4.0 0.00 0.00 0.00 81 1010.0
20260831054934 75 89 3.0 4.0 0.00 0.00 0.00 81 1010.0
20260831054213 75 95 2.0 4.0 0.00 0.00 0.00 81 1010.0
20260831053714 75 95 2.0 4.0 0.00 0.00 0.00 81 1010.3
20260831053206 75 94 3.0 6.0 0.00 0.00 0.00 81 1010.3
20260831052702 75 88 2.0 6.0 0.00 0.00 0.00 81 1010.1
20260831052155 75 108 2.0 6.0 0.00 0.00 0.00 81 1010.3
20260831051915 75 108 2.0 6.0 0.00 0.00 0.00 81 1010.4
20260831051143 74 86 2.0 4.0 0.00 0.00 0.00 81 1010.4
20260831050637 74 86 2.0 4.0 0.00 0.00 0.00 81 1010.4
20260831050352 74 84 2.0 4.0 0.00 0.00 0.00 81 1010.5
20260831045849 74 120 2.0 7.0 0.00 0.00 0.00 81 1010.5
20260831045120 74 88 2.0 7.0 0.00 0.00 0.00 82 1010.5
20260831044613 74 96 1.0 6.0 0.00 0.00 0.00 82 1010.5
20260831044107 74 94 1.0 4.0 0.00 0.00 0.00 82 1010.5
20260831043602 74 94 2.0 4.0 0.00 0.00 0.00 82 1010.5
20260831043055 74 85 2.0 4.0 0.00 0.00 0.00 82 1010.5
20260831042550 74 85 1.0 4.0 0.00 0.00 0.00 82 1010.5
20260831042044 74 81 1.0 5.0 0.00 0.00 0.00 82 1010.5
20260831041538 74 79 2.0 5.0 0.00 0.00 0.00 82 1010.4
20260831041032 74 90 3.0 7.0 0.00 0.00 0.00 82 1010.4
20260831040747 74 76 3.0 7.0 0.00 0.00 0.00 82 1010.5
20260831040020 74 71 2.0 5.0 0.00 0.00 0.00 82 1010.5
20260831035514 75 88 3.0 7.0 0.00 0.00 0.00 82 1010.6
20260831035007 75 78 2.0 7.0 0.00 0.00 0.00 82 1010.6
20260831034721 75 76 2.0 6.0 0.00 0.00 0.00 82 1010.6
20260831033956 75 84 3.0 6.0 0.00 0.00 0.00 82 1010.8
20260831033715 75 84 2.0 6.0 0.00 0.00 0.00 82 1010.8
20260831032956 75 85 1.0 4.0 0.00 0.00 0.00 82 1010.8
20260831032457 75 76 1.0 4.0 0.00 0.00 0.00 81 1010.9
20260831031956 75 66 1.0 4.0 0.00 0.00 0.00 81 1011.0
20260831031456 75 88 2.0 3.0 0.00 0.00 0.00 81 1010.9
20260831030956 75 84 2.0 6.0 0.00 0.00 0.00 81 1010.9
20260831030717 75 85 2.0 6.0 0.00 0.00 0.00 81 1010.9
20260831025956 75 89 3.0 8.0 0.00 0.00 0.00 81 1011.0
20260831025718 75 89 3.0 8.0 0.00 0.00 0.00 81 1011.0
20260831024956 75 89 2.0 7.0 0.00 0.00 0.00 81 1011.2
20260831024715 75 143 1.0 7.0 0.00 0.00 0.00 81 1011.3
20260831023956 75 107 0.0 3.0 0.00 0.00 0.00 81 1011.3
20260831023452 75 118 1.0 4.0 0.00 0.00 0.00 81 1011.4
20260831022952 75 171 2.0 4.0 0.00 0.00 0.00 81 1011.5
20260831022452 75 101 2.0 6.0 0.00 0.00 0.00 82 1011.3
20260831021951 76 109 2.0 7.0 0.00 0.00 0.00 82 1011.4
20260831021451 76 114 1.0 7.0 0.00 0.00 0.00 81 1011.5
20260831020952 76 126 1.0 4.0 0.00 0.00 0.00 81 1011.6
20260831020452 76 86 1.0 3.0 0.00 0.00 0.00 81 1011.7
20260831015951 76 109 1.0 3.0 0.00 0.00 0.00 80 1011.6
20260831015451 77 141 1.0 5.0 0.00 0.00 0.00 78 1011.5
20260831014951 77 141 0.0 5.0 0.00 0.00 0.00 78 1011.6
20260831014452 77 164 1.0 4.0 0.00 0.00 0.00 77 1011.5
20260831014213 77 164 1.0 4.0 0.00 0.00 0.00 77 1011.4
20260831013451 77 163 2.0 5.0 0.00 0.00 0.00 77 1011.3
20260831012952 77 169 4.0 8.0 0.00 0.00 0.00 76 1011.2
20260831012452 77 161 5.0 11.0 0.00 0.00 0.00 77 1011.3
20260831011952 77 177 4.0 11.0 0.00 0.00 0.00 77 1011.3
20260831011451 77 183 3.0 10.0 0.00 0.00 0.00 78 1011.3
20260831010950 77 199 3.0 6.0 0.00 0.00 0.00 77 1011.2
20260831010445 77 217 3.0 6.0 0.00 0.00 0.00 78 1010.9
20260831005938 78 212 3.0 6.0 0.00 0.00 0.00 78 1011.1
20260831005433 78 222 2.0 5.0 0.00 0.00 0.00 80 1010.9
20260831004926 78 170 0.0 5.0 0.00 0.00 0.00 82 1010.9
20260831004421 78 174 0.0 0.0 0.00 0.00 0.00 82 1010.8
20260831003914 78 109 0.0 1.0 0.00 0.00 0.00 82 1010.8
20260831003633 78 96 0.0 2.0 0.00 0.00 0.00 81 1010.7
20260831002904 79 95 0.0 2.0 0.00 0.00 0.00 81 1010.7
20260831002356 79 95 0.0 1.0 0.00 0.00 0.00 81 1010.5
20260831002108 79 95 0.0 4.0 0.00 0.00 0.00 80 1010.4
20260831001345 79 95 0.0 4.0 0.00 0.00 0.00 80 1010.5
20260831000838 80 92 0.0 0.0 0.00 0.00 0.00 79 1010.4
20260831000333 80 115 1.0 3.0 0.00 0.00 0.00 78 1010.5
20260830235826 80 115 1.0 3.0 0.00 0.00 0.00 78 1010.5
20260830235320 81 115 0.0 2.0 0.00 0.00 0.00 77 1010.3
20260830235228 81 167 0.0 1.0 0.00 0.00 0.00 76 1010.3
20260830235221 81 167 0.0 1.0 0.00 0.00 0.00 75 1010.3
20260830234031 81 167 1.0 5.0 0.00 0.00 0.00 75 1010.1
20260830233256 82 167 2.0 8.0 0.00 0.00 0.00 74 1010.0
20260830232752 82 161 3.0 8.0 0.00 0.00 0.00 74 1010.0
20260830232503 82 165 4.0 7.0 0.00 0.00 0.00 73 1009.9
20260830231739 82 182 4.0 8.0 0.00 0.00 0.00 72 1010.0
20260830231233 82 160 6.0 12.0 0.00 0.00 0.00 73 1009.9
20260830230727 82 191 7.0 12.0 0.00 0.00 0.00 71 1009.8
20260830230220 83 180 7.0 11.0 0.00 0.00 0.00 72 1009.9
20260830225714 83 169 5.0 11.0 0.00 0.00 0.00 72 1009.9
20260830225208 83 181 4.0 10.0 0.00 0.00 0.00 72 1009.9
20260830224702 83 146 3.0 8.0 0.00 0.00 0.00 73 1009.7
20260830224156 83 167 3.0 7.0 0.00 0.00 0.00 73 1009.7
20260830223651 83 177 4.0 9.0 0.00 0.00 0.00 72 1009.8
20260830223145 83 177 5.0 9.0 0.00 0.00 0.00 71 1009.8
20260830222639 83 182 4.0 7.0 0.00 0.00 0.00 71 1009.8
20260830222132 83 171 5.0 7.0 0.00 0.00 0.00 71 1009.8
20260830221626 83 157 5.0 10.0 0.00 0.00 0.00 70 1009.8
20260830221121 83 186 6.0 10.0 0.00 0.00 0.00 70 1009.7
20260830221104 83 173 5.0 10.0 0.00 0.00 0.00 70 1009.7
20260830220109 84 179 4.0 10.0 0.00 0.00 0.00 70 1009.7
20260830215604 84 170 5.0 10.0 0.00 0.00 0.00 70 1009.7
20260830215056 83 177 4.0 9.0 0.00 0.00 0.00 71 1009.4
20260830214817 83 158 3.0 9.0 0.00 0.00 0.00 70 1009.5
20260830214045 84 166 4.0 12.0 0.00 0.00 0.00 69 1009.5
20260830213538 84 207 5.0 12.0 0.00 0.00 0.00 68 1009.4
20260830213033 84 215 7.0 12.0 0.00 0.00 0.00 68 1009.4
20260830212528 84 155 6.0 12.0 0.00 0.00 0.00 67 1009.4
20260830212020 84 150 4.0 9.0 0.00 0.00 0.00 68 1009.4
20260830211515 84 194 3.0 9.0 0.00 0.00 0.00 70 1009.3
20260830211009 83 157 2.0 6.0 0.00 0.00 0.00 72 1009.3
20260830210724 83 152 3.0 8.0 0.00 0.00 0.00 71 1009.5
20260830205956 83 184 3.0 8.0 0.00 0.00 0.00 71 1009.5
20260830205708 83 154 3.0 7.0 0.00 0.00 0.00 71 1009.5
20260830204945 83 149 4.0 8.0 0.00 0.00 0.00 72 1009.6
20260830204445 84 180 3.0 8.0 0.00 0.00 0.00 69 1009.6
20260830204202 84 205 4.0 9.0 0.00 0.00 0.00 70 1009.7
20260830203444 84 119 3.0 9.0 0.00 0.00 0.00 70 1009.8
20260830202946 83 180 2.0 9.0 0.00 0.00 0.00 71 1009.8
20260830202702 83 178 2.0 7.0 0.00 0.00 0.00 72 1009.7
20260830202204 84 171 5.0 11.0 0.00 0.00 0.00 70 1009.7
20260830201709 83 189 6.0 12.0 0.00 0.00 0.00 71 1010.0
20260830201204 83 168 5.0 12.0 0.00 0.00 0.00 73 1010.1
20260830200443 83 182 5.0 10.0 0.00 0.00 0.00 73 1010.3
20260830195943 83 177 5.0 10.0 0.00 0.00 0.00 71 1010.1
20260830195442 83 115 5.0 12.0 0.00 0.00 0.00 71 1010.0
20260830194942 83 181 5.0 12.0 0.00 0.00 0.00 71 1009.9
20260830194442 83 161 5.0 11.0 0.00 0.00 0.00 69 1010.0
20260830193942 83 177 3.0 11.0 0.00 0.00 0.00 72 1010.0
20260830193442 82 152 3.0 9.0 0.00 0.00 0.00 74 1010.0
20260830192944 82 116 5.0 12.0 0.00 0.00 0.00 73 1010.0
20260830192437 82 162 5.0 12.0 0.00 0.00 0.00 72 1010.3
20260830192157 83 155 4.0 11.0 0.00 0.00 0.00 72 1010.0
20260830191424 83 162 4.0 12.0 0.00 0.00 0.00 72 1009.9
20260830190923 83 167 4.0 12.0 0.00 0.00 0.00 72 1010.0
20260830190422 82 116 4.0 11.0 0.00 0.00 0.00 75 1009.9
20260830185923 81 118 4.0 11.0 0.00 0.00 0.00 77 1009.9
20260830185424 81 81 4.0 11.0 0.00 0.00 0.00 76 1010.0
20260830184923 80 91 4.0 11.0 0.00 0.00 0.00 77 1009.8
20260830184423 80 103 5.0 11.0 0.00 0.00 0.00 76 1009.8
20260830184138 80 111 5.0 11.0 0.00 0.00 0.00 77 1009.9
20260830183645 80 86 2.0 10.0 0.00 0.00 0.00 77 1009.9
20260830182918 80 89 2.0 8.0 0.00 0.00 0.00 78 1009.7
20260830182418 80 114 2.0 7.0 0.00 0.00 0.00 77 1009.7
20260830181918 80 86 1.0 7.0 0.00 0.00 0.00 77 1009.8
20260830181418 80 82 2.0 7.0 0.00 0.00 0.00 76 1009.9
20260830180918 80 112 1.0 5.0 0.00 0.00 0.00 76 1009.9
20260830180640 79 91 1.0 5.0 0.00 0.00 0.00 76 1010.1
20260830175914 79 102 1.0 4.0 0.00 0.00 0.00 77 1010.4
20260830175415 79 92 2.0 8.0 0.00 0.00 0.00 77 1010.1
20260830175138 80 145 2.0 8.0 0.00 0.00 0.00 77 1010.7
20260830174416 79 159 2.0 7.0 0.00 0.00 0.00 77 1010.9
20260830173915 79 188 1.0 6.0 0.00 0.00 0.00 77 1010.9
20260830173414 79 158 2.0 8.0 0.00 0.00 0.00 78 1011.0
20260830172914 79 150 3.0 8.0 0.00 0.00 0.00 78 1011.3